Date String (YYYY-MM-DD hh:mm:ss) UTC,Instrument flags,Ambient pressure (hPa),Sample flow (lpm),Bypass flow (lpm),Sample temperature (°C),Ambient temperature (°C),ASC tube jacket temperature (°C),LED temperature (°C),Box temperature (°C),Sample RH (%),Span deviation,Mass concentration (μg/m³),Mass concentration (μg/m³),Mass concentration (μg/m³)
DateTimeUTC,F1_M11,P_M11,Q1_M11,Q2_M11,T1_M11,T2_M11,T3_M11,T4_M11,T5_M11,U1_M11,ZSPAN_M11,X2_M11,X0_M11,X1_M11
2022-05-10 06:00:00,,0822.7,5.01,0.00,29.4,28.5,00.0,38.4,31.1,13.1,0000.0,0005.37,0018.09,0001.96
2022-05-10 06:01:00,,0822.7,5.00,0.00,29.3,28.5,00.0,38.4,31.1,13.1,0000.0,0005.44,0020.03,0001.98
2022-05-10 06:02:00,,0822.7,5.00,0.00,29.3,28.5,00.0,38.4,31.0,13.1,0000.0,0005.43,0021.38,0001.97
2022-05-10 06:03:00,,0822.6,5.00,0.00,29.3,28.5,00.0,38.4,31.0,13.1,0000.0,0005.36,0021.16,0001.98
2022-05-10 06:04:00,,0822.6,4.99,0.00,29.3,28.4,00.0,38.4,31.0,13.1,0000.0,0005.33,0021.41,0002.00
2022-05-10 06:05:00,,0822.5,5.00,0.00,29.3,28.4,00.0,38.4,31.0,13.1,0000.0,0005.38,0021.59,0002.00
2022-05-10 06:06:00,,0822.6,5.00,0.00,29.3,28.3,00.0,38.4,31.0,13.2,0000.0,0005.33,0021.26,0001.99
2022-05-10 06:07:00,,0822.7,5.00,0.00,29.3,28.3,00.0,38.3,31.0,13.2,0000.0,0005.37,0021.48,0002.01
2022-05-10 06:08:00,,0822.8,5.02,0.00,29.2,28.4,00.0,38.3,31.0,13.2,0000.0,0005.34,0022.05,0002.03
2022-05-10 06:09:00,,0822.9,5.01,0.00,29.2,28.4,00.0,38.3,30.9,13.2,0000.0,0005.34,0022.34,0002.06
2022-05-10 06:10:00,,0822.7,5.00,0.00,29.2,28.3,00.0,38.3,30.9,13.3,0000.0,0005.30,0022.05,0002.06
2022-05-10 06:11:00,,0822.6,4.99,0.00,29.2,28.3,00.0,38.3,30.9,13.4,0000.0,0005.24,0022.62,0002.07
2022-05-10 06:12:00,,0822.6,5.01,0.00,29.2,28.3,00.0,38.3,30.9,13.4,0000.0,0005.15,0020.72,0002.06
2022-05-10 06:13:00,,0822.6,5.00,0.00,29.1,28.3,00.0,38.3,30.8,13.2,0000.0,0005.17,0019.86,0002.06
2022-05-10 06:14:00,,0822.6,4.99,0.00,29.1,28.3,00.0,38.2,30.8,13.2,0000.0,0005.24,0019.20,0002.06
2022-05-10 06:15:00,,0822.7,5.01,0.00,29.1,28.3,00.0,38.2,30.8,13.1,0000.0,0005.26,0018.83,0002.04
2022-05-10 06:16:00,,0822.8,5.00,0.00,29.1,28.3,00.0,38.2,30.8,13.0,0000.0,0005.24,0019.61,0002.03
2022-05-10 06:17:00,,0822.7,4.99,0.00,29.1,28.2,00.0,38.2,30.8,13.0,0000.0,0005.19,0020.22,0002.01
2022-05-10 06:18:00,,0822.7,5.01,0.00,29.1,28.1,00.0,38.2,30.8,13.0,0000.0,0005.07,0019.98,0001.99
2022-05-10 06:19:00,,0822.7,5.00,0.00,29.1,28.1,00.0,38.2,30.7,13.0,0000.0,0005.09,0019.64,0001.98
2022-05-10 06:20:00,,0822.7,5.00,0.00,29.0,28.1,00.0,38.2,30.7,12.9,0000.0,0005.10,0019.57,0001.98
2022-05-10 06:21:00,,0822.7,5.01,0.00,29.0,28.0,00.0,38.1,30.7,13.0,0000.0,0005.08,0020.88,0001.98
2022-05-10 06:22:00,,0822.7,5.00,0.00,29.0,28.0,00.0,38.1,30.7,13.0,0000.0,0005.11,0020.40,0001.97
2022-05-10 06:23:00,,0822.7,4.99,0.00,29.0,27.9,00.0,38.1,30.7,13.0,0000.0,0005.12,0020.16,0001.96
2022-05-10 06:24:00,,0822.8,5.00,0.00,28.9,27.9,00.0,38.1,30.7,13.2,0000.0,0005.07,0019.24,0001.96
2022-05-10 06:25:00,,0822.8,5.00,0.00,28.9,27.8,00.0,38.1,30.6,13.5,0000.0,0004.97,0019.23,0001.94
2022-05-10 06:26:00,,0822.7,5.00,0.00,28.9,27.8,00.0,38.0,30.5,13.5,0000.0,0004.99,0019.54,0001.94
2022-05-10 06:27:00,,0822.7,5.01,0.00,28.9,27.8,00.0,38.0,30.5,13.5,0000.0,0004.98,0019.30,0001.94
2022-05-10 06:28:00,,0822.7,5.00,0.00,28.8,27.8,00.0,38.0,30.6,13.3,0000.0,0005.05,0018.92,0001.98
2022-05-10 06:29:00,,0822.7,4.99,0.00,28.8,27.8,00.0,38.0,30.6,13.1,0000.0,0005.11,0018.51,0001.98
2022-05-10 06:30:00,,0822.7,5.00,0.00,28.8,27.8,00.0,37.9,30.5,13.4,0000.0,0005.16,0018.27,0001.97
2022-05-10 06:31:00,,0822.8,5.00,0.00,28.8,27.8,00.0,37.9,30.5,13.5,0000.0,0005.23,0017.97,0002.00
2022-05-10 06:32:00,,0822.8,5.00,0.00,28.8,27.7,00.0,37.9,30.5,13.1,0000.0,0005.30,0016.71,0002.01
2022-05-10 06:33:00,,0822.8,5.00,0.00,28.7,27.7,00.0,37.9,30.5,13.2,0000.0,0005.29,0015.87,0002.03
2022-05-10 06:34:00,,0822.7,5.00,0.00,28.7,27.7,00.0,37.9,30.4,13.2,0000.0,0005.30,0015.91,0002.07
2022-05-10 06:35:00,,0822.7,5.01,0.00,28.7,27.7,00.0,37.9,30.4,13.3,0000.0,0005.38,0017.69,0002.08
2022-05-10 06:36:00,,0822.8,5.01,0.00,28.7,27.7,00.0,37.8,30.4,13.2,0000.0,0005.43,0017.95,0002.13
2022-05-10 06:37:00,,0822.7,4.99,0.00,28.7,27.7,00.0,37.8,30.4,13.1,0000.0,0005.43,0018.06,0002.12
2022-05-10 06:38:00,,0822.8,5.01,0.00,28.7,27.7,00.0,37.8,30.4,13.0,0000.0,0005.42,0018.68,0002.13
2022-05-10 06:39:00,,0822.9,4.99,0.00,28.7,27.7,00.0,37.8,30.4,13.2,0000.0,0005.41,0019.24,0002.11
2022-05-10 06:40:00,,0822.9,5.01,0.00,28.7,27.7,00.0,37.8,30.4,13.1,0000.0,0005.42,0019.61,0002.10
2022-05-10 06:41:00,,0822.9,5.01,0.00,28.7,27.7,00.0,37.8,30.4,13.2,0000.0,0005.44,0020.24,0002.13
2022-05-10 06:42:00,,0822.9,5.00,0.00,28.6,27.7,00.0,37.8,30.4,13.1,0000.0,0005.43,0020.21,0002.14
2022-05-10 06:43:00,,0822.9,5.00,0.00,28.6,27.6,00.0,37.7,30.4,13.2,0000.0,0005.40,0020.01,0002.13
2022-05-10 06:44:00,,0822.9,5.00,0.00,28.6,27.6,00.0,37.7,30.4,13.2,0000.0,0005.40,0019.93,0002.12
2022-05-10 06:45:00,,0822.8,5.01,0.00,28.6,27.6,00.0,37.7,30.3,13.2,0000.0,0005.39,0019.36,0002.11
2022-05-10 06:46:00,,0822.7,5.01,0.00,28.6,27.5,00.0,37.7,30.3,13.1,0000.0,0005.37,0017.79,0002.11
2022-05-10 06:47:00,,0822.7,5.00,0.00,28.5,27.5,00.0,37.7,30.2,13.1,0000.0,0005.31,0017.38,0002.07
2022-05-10 06:48:00,,0822.8,5.00,0.00,28.5,27.5,00.0,37.6,30.2,13.0,0000.0,0005.23,0017.68,0002.06
2022-05-10 06:49:00,,0822.8,5.00,0.00,28.5,27.5,00.0,37.6,30.2,12.8,0000.0,0005.24,0016.48,0002.05
2022-05-10 06:50:00,,0822.9,4.99,0.00,28.5,27.5,00.0,37.6,30.2,12.9,0000.0,0005.24,0015.63,0002.05
2022-05-10 06:51:00,,0822.8,5.00,0.00,28.5,27.4,00.0,37.6,30.2,13.0,0000.0,0005.20,0015.18,0002.07
2022-05-10 06:52:00,,0822.7,5.00,0.00,28.5,27.3,00.0,37.6,30.2,13.2,0000.0,0005.13,0014.65,0002.06
2022-05-10 06:53:00,,0822.7,5.00,0.00,28.4,27.3,00.0,37.6,30.2,13.1,0000.0,0005.13,0015.23,0002.04
2022-05-10 06:54:00,,0822.7,5.00,0.00,28.4,27.4,00.0,37.6,30.1,13.1,0000.0,0005.10,0015.22,0002.04
2022-05-10 06:55:00,,0822.7,4.99,0.00,28.4,27.4,00.0,37.5,30.1,13.1,0000.0,0005.15,0015.48,0002.04
2022-05-10 06:56:00,,0822.7,5.01,0.00,28.4,27.4,00.0,37.5,30.1,13.2,0000.0,0005.14,0015.52,0002.05
2022-05-10 06:57:00,,0822.9,5.01,0.00,28.4,27.3,00.0,37.5,30.1,13.2,0000.0,0005.06,0015.17,0002.03
2022-05-10 06:58:00,,0822.9,5.00,0.00,28.4,27.3,00.0,37.5,30.1,13.2,0000.0,0005.08,0015.35,0002.03
2022-05-10 06:59:00,,0822.9,5.00,0.00,28.3,27.2,00.0,37.5,30.1,13.2,0000.0,0005.11,0014.59,0002.06
